TimeCST,TemperatureF,Dew PointF,Humidity,Sea Level PressureIn,VisibilityMPH,Wind Direction,Wind SpeedMPH,Gust SpeedMPH,PrecipitationIn,Events,Conditions,WindDirDegrees,DateUTC
12:53 AM,26.1,8.1,47,30.31,10.0,North,4.6,-,N/A,,Clear,360,2013-02-20 06:53:00
1:53 AM,25.0,8.1,49,30.30,10.0,North,6.9,-,N/A,,Clear,10,2013-02-20 07:53:00
2:53 AM,24.1,7.0,48,30.32,10.0,North,3.5,-,N/A,,Clear,360,2013-02-20 08:53:00
3:53 AM,24.1,8.1,51,30.30,10.0,North,6.9,-,N/A,,Clear,10,2013-02-20 09:53:00
4:53 AM,23.0,7.0,50,30.32,10.0,NNE,5.8,-,N/A,,Clear,30,2013-02-20 10:53:00
5:53 AM,23.0,7.0,50,30.32,10.0,NNE,6.9,-,N/A,,Clear,20,2013-02-20 11:53:00
6:53 AM,23.0,6.1,48,30.35,10.0,NNE,8.1,-,N/A,,Clear,20,2013-02-20 12:53:00
7:53 AM,23.0,6.1,48,30.36,10.0,NNE,5.8,-,N/A,,Clear,20,2013-02-20 13:53:00
9:53 AM,25.0,5.0,43,30.36,10.0,NE,4.6,-,N/A,,Mostly Cloudy,50,2013-02-20 15:53:00
10:53 AM,26.1,6.1,43,30.35,10.0,NE,8.1,-,N/A,,Overcast,50,2013-02-20 16:53:00
11:53 AM,27.0,8.1,45,30.35,10.0,NE,6.9,-,N/A,,Overcast,50,2013-02-20 17:53:00
12:53 PM,28.0,7.0,41,30.32,10.0,NE,6.9,-,N/A,,Overcast,50,2013-02-20 18:53:00
1:53 PM,30.9,8.1,38,30.27,10.0,ENE,8.1,-,N/A,,Mostly Cloudy,60,2013-02-20 19:53:00
2:53 PM,32.0,6.1,34,30.24,10.0,ENE,8.1,-,N/A,,Overcast,70,2013-02-20 20:53:00
3:53 PM,32.0,8.1,37,30.25,10.0,East,4.6,-,N/A,,Overcast,80,2013-02-20 21:53:00
4:53 PM,32.0,8.1,37,30.24,10.0,East,4.6,-,N/A,,Overcast,90,2013-02-20 22:53:00
5:53 PM,32.0,9.0,38,30.24,10.0,East,5.8,-,N/A,,Overcast,100,2013-02-20 23:53:00
6:53 PM,30.9,7.0,37,30.24,10.0,ESE,8.1,-,N/A,,Overcast,120,2013-02-21 00:53:00
7:53 PM,30.9,9.0,40,30.22,10.0,East,8.1,-,N/A,,Overcast,100,2013-02-21 01:53:00
8:53 PM,30.0,9.0,41,30.23,10.0,East,9.2,-,N/A,,Overcast,90,2013-02-21 02:53:00
9:53 PM,30.0,9.0,41,30.22,10.0,East,5.8,-,N/A,,Overcast,80,2013-02-21 03:53:00
10:53 PM,28.9,12.9,51,30.22,10.0,ESE,6.9,-,N/A,,Overcast,110,2013-02-21 04:53:00
11:53 PM,28.9,12.9,51,30.21,10.0,East,10.4,-,N/A,,Overcast,90,2013-02-21 05:53:00